Regional Weather Roundup
Issued by NWS Cleveland, OH

Home | Current Version | Previous Version | Graphics & Text | Print | Product List | Glossary On
Versions: 1 2 3 4 5 6 7 8 9 10 11 12 13 14 15 16 17 18 19 20 21 22 23 24 25 26 27 28 29 30 31 32 33 34 35 36 37 38 39 40 41 42 43 44 45 46 47 48 49 50
000
ASUS41 KCLE 041510
RWRCLE
OHIO REGIONAL WEATHER ROUNDUP
NATIONAL WEATHER SERVICE WILMINGTON, OH
1100 AM EDT TUE AUG 04 2015

NOTE: "FAIR" INDICATES FEW OR NO CLOUDS BELOW 12,000 FEET WITH NO
SIGNIFICANT WEATHER AND/OR OBSTRUCTIONS TO VISIBILITY.

OHZ001>008-015>018-024>027-034-035-043-044-041600-
   NORTHWEST OHIO

CITY           SKY/WX    TMP DP  RH WIND       PRES   REMARKS
DEFIANCE       MOSUNNY   76  60  57 W5        29.97R
FINDLAY        SUNNY     76  56  49 W12       29.97R
TOLEDO EXPRESS SUNNY     74  59  59 SW10      29.95S
TOLEDO EXEC    SUNNY     75  56  51 SW12      29.96S
LIMA           SUNNY     75  56  51 SW9       29.99R
$$

OHZ009>014-019>023-028>033-038-089-041600-
   NORTHEAST OHIO

CITY           SKY/WX    TMP DP  RH WIND       PRES   REMARKS
CLE-HOPKINS    MOSUNNY   74  53  48 SW9       29.99R
CLE-LAKEFRONT  SUNNY     75  55  49 W8        29.95S
CUY CO. ARPT   MOSUNNY   77  59  53 W12       29.98R
LORAIN-ELYRIA  SUNNY     73  54  51 W9        29.98S
ASHTABULA      SUNNY     73  58  59 W10       29.97R
AKRON-CANTON   SUNNY     76  53  44 NW6       29.99R
WOOSTER        SUNNY     76  53  44 CALM      29.99S
MANSFIELD      SUNNY     76  53  44 W7        29.99S
YOUNGSTOWN     MOSUNNY   75  56  51 W12       29.98R
$$

OHZ042-051>053-060>062-070>072-077>081-041600-
  SOUTHWEST OHIO

CITY           SKY/WX    TMP DP  RH WIND       PRES   REMARKS
CINC-COVINGTON PTSUNNY   79  65  62 W9        30.00R
CINC-LUNKEN    SUNNY     76  71  85 VRB3      29.99S
HAMILTON       SUNNY     79  65  62 VRB3      30.00R
DAYTON         MOSUNNY   76  55  48 S6        30.01R
WRIGHT-PAT AFB SUNNY     76  53  44 S5        30.00R
DAYTON GENERAL SUNNY     77  56  48 S6        30.00R
WILMINGTON     SUNNY     75  54  47 SE6       30.00R
$$

OHZ036-037-039>041-045>050-054>059-063>069-073>076-082>088-041600-
  CENTRAL AND SOUTHEAST OHIO

CITY           SKY/WX    TMP DP  RH WIND       PRES   REMARKS
COLUMBUS       MOSUNNY   76  55  48 SW6       29.99S
OSU AIRPORT    MOSUNNY   76  55  48 CALM      29.99S
BOLTON FIELD   PTSUNNY   75  55  50 S3        30.00S
RICKENBACK AFB MOSUNNY   74  59  57 SE3       29.99S
NEWARK         MOSUNNY   76  58  53 SE7       29.99S
MARION         SUNNY     74  56  53 S6        29.99S
LANCASTER      PTSUNNY   76  56  49 SW5       30.00S
ZANESVILLE     SUNNY     76  51  41 VRB3      30.00S
NEW PHILLY     SUNNY     73  57  57 VRB3      30.00R
$$


USA.gov is the U.S. government's official web portal to all federal, state and local government web resources and services.